Weather History for Fort Polk, LA

Change the Weather History Date:

Thursday, December 20, 2012

  Actual Average (KPOE) Record (KPOE)
Temperature  
Mean Temperature 56 °F -  
Max Temperature 73 °F 56 °F 77 °F (1998)
Min Temperature 39 °F 36 °F 19 °F (1996)
Degree Days  
Heating Degree Days 9    
Growing Degree Days 6 (Base 50)    
Moisture  
Dew Point 33 °F    
Average Humidity 47    
Maximum Humidity 81    
Minimum Humidity 28    
Precipitation  
Precipitation 0.00 in - - ()
Sea Level Pressure  
Sea Level Pressure 30.12 in    
Wind  
Wind Speed 14 mph (WNW)    
Max Wind Speed 18 mph    
Max Gust Speed 31 mph    
Visibility 10 miles    
Events      
Averages and records for this station are not official NWS values.
T = Trace of Precipitation, MM = Missing Value Source: NWS Daily Summary

Daily Weather History Graph

Daily Weather History Graph

Search for Another Location

Airport:

Trip Planner

Search our weather history database for the weather conditions in past years. The results will help you decide how hot, cold, wet, or windy it might be!

Date:

Astronomy

Dec. 20, 2012 Rise Set
Actual Time 7:06 AM CST 5:14 PM CST
Civil Twilight 6:39 AM CST 5:41 PM CST
Nautical Twilight 6:09 AM CST 6:11 PM CST
Astronomical Twilight 5:40 AM CST 6:40 PM CST
Moon 12:14 PM CST (12/20) 12:14 AM CST (12/20)
Length of Visible Light 11h 01m
Length of Day
10h 07m
First Quarter, 55% of the Moon is Illuminated
Dec 20
First Quarter
Dec 28
Full
Jan 4
Last Quarter
Jan 11
New
Jan 18
First Quarter

Hourly Weather History & Observations

Time (CST) Temp. Windchill Dew Point Humidity Pressure Visibility Wind Dir Wind Speed Gust Speed Precip Events Conditions
12:10 AM 73.4 °F - 66.2 °F 78% 29.75 in 10.0 mi SW 18.4 mph 25.3 mph N/A   Mostly Cloudy
12:53 AM 73.0 °F - 66.9 °F 81% 29.74 in 10.0 mi SSW 16.1 mph 23.0 mph N/A   Mostly Cloudy
1:04 AM 73.4 °F - 66.2 °F 78% 29.74 in 10.0 mi SSW 16.1 mph 23.0 mph N/A   Overcast
1:53 AM 73.0 °F - 66.9 °F 81% 29.75 in 10.0 mi SW 11.5 mph 21.9 mph N/A   Overcast
2:53 AM 73.0 °F - 66.9 °F 81% 29.75 in 10.0 mi SW 12.7 mph 26.5 mph N/A   Overcast
10:53 AM 50.0 °F - 27.0 °F 41% 30.15 in 10.0 mi NW 17.3 mph 31.1 mph N/A   Unknown
11:00 AM 50.0 °F - 26.6 °F 40% 30.15 in 10.0 mi NW 17.3 mph 25.3 mph N/A   Unknown
11:53 AM 51.1 °F - 27.0 °F 39% 30.15 in 10.0 mi NW 16.1 mph 29.9 mph N/A   Clear
12:53 PM 53.1 °F - 27.0 °F 37% 30.14 in 10.0 mi NW 16.1 mph 25.3 mph N/A   Clear
1:53 PM 54.0 °F - 27.0 °F 35% 30.15 in 10.0 mi NW 18.4 mph 31.1 mph N/A   Clear
2:53 PM 53.1 °F - 26.1 °F 35% 30.17 in 10.0 mi NW 18.4 mph 28.8 mph N/A   Unknown
3:53 PM 52.0 °F - 23.0 °F 32% 30.20 in 10.0 mi NW 17.3 mph 29.9 mph N/A   Clear
4:53 PM 50.0 °F - 18.0 °F 28% 30.23 in 10.0 mi NNW 13.8 mph 26.5 mph N/A   Clear
5:53 PM 46.9 °F - 18.0 °F 32% 30.27 in 10.0 mi NW 9.2 mph - N/A   Clear
6:53 PM 45.0 °F 41.8 °F 17.1 °F 33% 30.30 in 10.0 mi NW 5.8 mph - N/A   Clear
7:53 PM 43.0 °F 39.5 °F 17.1 °F 35% 30.32 in 10.0 mi NNW 5.8 mph - N/A   Clear
8:53 PM 42.1 °F 37.7 °F 17.1 °F 37% 30.32 in 10.0 mi NW 6.9 mph - N/A   Clear
9:53 PM 41.0 °F 37.1 °F 17.1 °F 38% 30.34 in 10.0 mi NW 5.8 mph - N/A   Clear
10:53 PM 39.9 °F 35.8 °F 18.0 °F 41% 30.37 in 10.0 mi NW 5.8 mph - N/A   Clear
11:53 PM 39.0 °F 35.7 °F 18.0 °F 43% 30.37 in 10.0 mi NW 4.6 mph - N/A   Clear